TimeEDT,TemperatureF,Dew PointF,Humidity,Sea Level PressureIn,VisibilityMPH,Wind Direction,Wind SpeedMPH,Gust SpeedMPH,PrecipitationIn,Events,Conditions,WindDirDegrees,DateUTC
12:56 AM,64.0,57.9,80,29.88,10.0,Calm,Calm,-,N/A,,Overcast,0,2013-09-08 04:56:00
1:56 AM,66.9,52.0,59,29.86,10.0,West,4.6,-,N/A,,Overcast,260,2013-09-08 05:56:00
2:56 AM,68.0,52.0,56,29.86,10.0,West,3.5,-,N/A,,Overcast,270,2013-09-08 06:56:00
3:56 AM,66.0,53.1,63,29.84,10.0,West,3.5,-,N/A,,Overcast,270,2013-09-08 07:56:00
4:56 AM,64.9,53.1,65,29.83,10.0,West,4.6,-,N/A,,Mostly Cloudy,280,2013-09-08 08:56:00
5:56 AM,64.0,54.0,70,29.82,10.0,West,4.6,-,N/A,,Scattered Clouds,260,2013-09-08 09:56:00
6:56 AM,64.0,54.0,70,29.83,10.0,West,4.6,-,N/A,,Clear,280,2013-09-08 10:56:00
7:56 AM,66.0,55.9,70,29.83,10.0,West,3.5,-,N/A,,Scattered Clouds,270,2013-09-08 11:56:00
8:56 AM,70.0,57.0,63,29.82,10.0,NW,8.1,-,N/A,,Clear,310,2013-09-08 12:56:00
9:56 AM,73.0,59.0,61,29.82,10.0,WNW,10.4,-,N/A,,Clear,300,2013-09-08 13:56:00
10:56 AM,75.9,61.0,60,29.82,10.0,WNW,12.7,-,N/A,,Clear,300,2013-09-08 14:56:00
11:56 AM,77.0,61.0,58,29.82,10.0,WNW,16.1,21.9,N/A,,Scattered Clouds,290,2013-09-08 15:56:00
12:56 PM,73.9,61.0,64,29.82,10.0,NW,6.9,-,N/A,,Mostly Cloudy,310,2013-09-08 16:56:00
1:56 PM,79.0,62.1,56,29.82,10.0,North,8.1,-,N/A,,Mostly Cloudy,350,2013-09-08 17:56:00
2:56 PM,81.0,60.1,49,29.83,10.0,North,12.7,-,N/A,,Scattered Clouds,350,2013-09-08 18:56:00
3:56 PM,78.1,55.9,46,29.85,10.0,NW,15.0,19.6,N/A,,Scattered Clouds,320,2013-09-08 19:56:00
4:56 PM,77.0,48.0,36,29.86,10.0,North,17.3,-,N/A,,Partly Cloudy,350,2013-09-08 20:56:00
5:56 PM,73.9,46.0,37,29.90,10.0,NNE,13.8,-,N/A,,Partly Cloudy,20,2013-09-08 21:56:00
6:56 PM,69.1,44.1,40,29.94,10.0,North,9.2,-,N/A,,Clear,360,2013-09-08 22:56:00
7:56 PM,64.0,44.1,48,29.98,10.0,North,9.2,-,N/A,,Clear,350,2013-09-08 23:56:00
8:56 PM,63.0,44.1,50,30.02,10.0,North,5.8,-,N/A,,Clear,350,2013-09-09 00:56:00
9:56 PM,61.0,44.1,54,30.05,10.0,North,8.1,-,N/A,,Clear,350,2013-09-09 01:56:00
10:56 PM,60.1,43.0,53,30.06,10.0,North,10.4,-,N/A,,Clear,360,2013-09-09 02:56:00
11:56 PM,57.9,42.1,56,30.08,10.0,North,12.7,-,N/A,,Clear,350,2013-09-09 03:56:00